FW6272 Weather Reports


time (UTC)temp
C
wind
direction
speed
KPH
gust
KPH
rain 1hr
cm
rain 24hr
cm
rain mn
cm
humidity
%
barometer
mb
20260506203703 19 200 4.8 20.9 0.00 0.03 0.03 80 1007.1
20260506203202 19 208 4.8 11.3 0.00 0.03 0.03 81 1007.5
20260506202702 19 214 8.0 16.1 0.00 0.03 0.03 81 1007.1
20260506202203 19 169 11.3 24.1 0.00 0.03 0.03 82 1007.5
20260506201702 19 205 4.8 20.9 0.00 0.03 0.03 82 1007.2
20260506201202 19 200 9.7 24.1 0.00 0.03 0.03 82 1007.1
20260506200702 18 202 4.8 16.1 0.00 0.03 0.03 83 1007.5
20260506195702 18 208 6.4 11.3 0.00 0.03 0.03 83 1007.8
20260506195202 18 217 4.8 16.1 0.00 0.03 0.03 83 1007.8
20260506194703 18 209 9.7 16.1 0.00 0.03 0.03 83 1007.8
20260506194203 18 166 8.0 24.1 0.00 0.03 0.03 83 1007.9
20260506193203 18 198 8.0 27.4 0.00 0.03 0.03 83 1007.8
20260506192703 18 175 9.7 24.1 0.00 0.03 0.03 84 1007.8
20260506192203 18 175 0.0 11.3 0.00 0.03 0.03 84 1008.1
20260506191702 18 202 4.8 16.1 0.00 0.03 0.03 84 1008.1
20260506191202 18 190 9.7 20.9 0.00 0.03 0.03 84 1008.1
20260506190203 18 203 9.7 27.4 0.00 0.03 0.03 85 1007.9
20260506185702 19 186 16.1 40.2 0.00 0.03 0.03 84 1008.4
20260506184703 19 181 12.9 32.2 0.00 0.03 0.03 80 1008.1
20260506184202 19 187 9.7 32.2 0.00 0.03 0.03 81 1008.1
20260506183702 19 170 4.8 16.1 0.00 0.03 0.03 81 1007.8
20260506182202 19 203 9.7 32.2 0.00 0.03 0.03 80 1008.1
20260506181702 19 185 8.0 27.4 0.00 0.03 0.03 79 1008.1
20260506181202 19 168 11.3 32.2 0.00 0.03 0.03 79 1008.3
20260506180702 19 181 14.5 35.4 0.00 0.03 0.03 78 1008.5
20260506180202 20 232 12.9 20.9 0.00 0.03 0.03 77 1008.5
20260506175702 20 230 17.7 35.4 0.00 0.03 0.03 77 1008.5
20260506175203 20 210 11.3 27.4 0.00 0.03 0.03 78 1008.5
20260506174702 20 199 11.3 27.4 0.00 0.03 0.03 78 1008.5
20260506173703 20 204 19.3 32.2 0.00 0.03 0.03 77 1008.5
20260506173202 20 208 11.3 24.1 0.00 0.03 0.03 78 1008.5
20260506172703 21 196 12.9 32.2 0.03 0.03 0.03 77 1008.5
20260506172202 21 207 14.5 27.4 0.03 0.03 0.03 77 1008.5
20260506171702 20 229 14.5 27.4 0.03 0.03 0.03 77 1008.5
20260506171203 20 183 11.3 27.4 0.03 0.03 0.03 76 1008.5
20260506165702 20 199 11.3 20.9 0.03 0.03 0.03 78 1008.8
20260506165203 19 186 8.0 20.9 0.03 0.03 0.03 80 1008.8
20260506164703 19 184 4.8 11.3 0.03 0.03 0.03 82 1009.1
20260506164202 19 123 4.8 11.3 0.03 0.03 0.03 82 1009.1
20260506163703 19 177 8.0 20.9 0.03 0.03 0.03 82 1009.5
20260506162702 19 213 3.2 16.1 0.00 0.00 0.00 82 1009.8
20260506162204 19 190 8.0 16.1 0.00 0.00 0.00 80 1009.8
20260506161703 19 193 8.0 16.1 0.00 0.00 0.00 80 1009.8
20260506161202 19 205 11.3 16.1 0.00 0.00 0.00 80 1009.8
20260506160702 19 188 8.0 20.9 0.00 0.00 0.00 80 1010.1
20260506160203 19 195 4.8 20.9 0.00 0.00 0.00 80 1010.2
20260506155702 20 181 8.0 16.1 0.00 0.00 0.00 79 1010.2
20260506154702 20 203 11.3 27.4 0.00 0.00 0.00 77 1010.2
20260506154203 20 175 8.0 27.4 0.00 0.00 0.00 76 1010.2
20260506153703 21 170 9.7 27.4 0.00 0.00 0.00 73 1009.8
20260506153203 21 186 9.7 24.1 0.00 0.00 0.00 70 1010.0
20260506152703 21 202 8.0 20.9 0.00 0.00 0.00 68 1010.2
20260506152202 21 203 11.3 24.1 0.00 0.00 0.00 67 1009.8
20260506151702 21 199 11.3 32.2 0.00 0.00 0.00 68 1010.2
20260506151203 21 206 11.3 24.1 0.00 0.00 0.00 68 1010.2
20260506150703 21 214 11.3 24.1 0.00 0.00 0.00 69 1010.2
20260506150202 21 191 11.3 20.9 0.00 0.00 0.00 68 1010.2
20260506145703 21 176 11.3 20.9 0.00 0.00 0.00 68 1010.2
20260506145202 21 212 9.7 27.4 0.00 0.00 0.00 68 1010.2
20260506144202 21 229 8.0 11.3 0.00 0.00 0.00 68 1010.2
20260506143202 21 195 14.5 24.1 0.00 0.00 0.00 66 1010.1
20260506142702 21 181 8.0 20.9 0.00 0.00 0.00 67 1010.2
20260506142203 21 210 9.7 27.4 0.00 0.00 0.00 67 1010.1
20260506141702 21 223 16.1 32.2 0.00 0.00 0.00 66 1009.9
20260506141203 21 202 12.9 27.4 0.00 0.00 0.00 67 1010.1
20260506140703 21 203 6.4 16.1 0.00 0.00 0.00 68 1010.1
20260506140202 21 190 8.0 27.4 0.00 0.00 0.00 68 1010.2
20260506135702 21 206 9.7 24.1 0.00 0.00 0.00 69 1010.0
20260506135203 21 192 14.5 27.4 0.00 0.00 0.00 69 1009.9
20260506134202 21 183 8.0 20.9 0.00 0.00 0.00 70 1009.8
20260506133702 21 197 11.3 27.4 0.00 0.00 0.00 69 1010.2
20260506133203 21 213 14.5 35.4 0.00 0.00 0.00 69 1010.2
20260506132702 21 191 8.0 24.1 0.00 0.00 0.00 70 1010.2
20260506132202 20 188 12.9 32.2 0.00 0.00 0.00 70 1010.2
20260506131702 20 181 11.3 24.1 0.00 0.00 0.00 70 1010.2
20260506130702 20 213 12.9 32.2 0.00 0.00 0.00 70 1010.2
20260506130203 20 191 12.9 24.1 0.00 0.00 0.00 71 1010.2
20260506125203 20 171 11.3 27.4 0.00 0.00 0.00 72 1010.2
20260506124704 20 184 12.9 27.4 0.00 0.00 0.00 72 1010.2
20260506124202 19 181 11.3 32.2 0.00 0.00 0.00 72 1010.2
20260506123702 19 201 8.0 24.1 0.00 0.00 0.00 74 1010.2
20260506123202 18 238 14.5 24.1 0.00 0.00 0.00 74 1010.2
20260506122702 18 189 12.9 24.1 0.00 0.00 0.00 75 1010.2
20260506122202 18 194 9.7 27.4 0.00 0.00 0.00 76 1010.5
20260506121702 18 217 8.0 24.1 0.00 0.00 0.00 76 1010.3
20260506121203 18 193 6.4 24.1 0.00 0.00 0.00 76 1010.2
20260506120702 18 206 8.0 24.1 0.00 0.00 0.00 76 1010.2
20260506120203 18 204 11.3 27.4 0.00 0.00 0.00 76 1010.3
20260506115703 18 199 11.3 24.1 0.00 0.00 0.00 76 1010.5
20260506115203 18 197 14.5 27.4 0.00 0.00 0.00 76 1010.2
20260506114703 18 202 9.7 24.1 0.00 0.00 0.00 77 1010.3
20260506114203 18 194 8.0 24.1 0.00 0.00 0.00 77 1010.5
20260506113703 18 190 12.9 27.4 0.00 0.00 0.00 77 1010.5
20260506111702 17 192 14.5 32.2 0.00 0.00 0.00 79 1010.4
20260506111203 17 197 14.5 32.2 0.00 0.00 0.00 80 1010.5
20260506110703 17 182 11.3 35.4 0.00 0.00 0.00 81 1010.5
20260506110203 17 189 9.7 20.9 0.00 0.00 0.00 81 1010.5
20260506105703 17 211 14.5 24.1 0.00 0.00 0.00 81 1010.2
20260506104702 17 217 6.4 20.9 0.00 0.00 0.00 82 1010.5
20260506104202 17 178 8.0 24.1 0.00 0.00 0.00 83 1010.3
20260506103702 17 191 14.5 24.1 0.00 0.00 0.00 83 1010.5
20260506103203 17 197 8.0 24.1 0.00 0.00 0.00 83 1010.5
20260506102703 17 188 6.4 20.9 0.00 0.00 0.00 84 1010.7
20260506101702 17 193 8.0 24.1 0.00 0.00 0.00 83 1010.5
20260506101203 17 185 11.3 24.1 0.00 0.00 0.00 83 1010.2
20260506100703 17 186 8.0 20.9 0.00 0.00 0.00 84 1010.2
20260506100203 17 195 8.0 20.9 0.00 0.00 0.00 84 1010.5
20260506095202 17 155 1.6 3.2 0.00 0.00 0.00 84 1010.2
20260506094703 17 179 6.4 16.1 0.00 0.00 0.00 84 1010.2
20260506092702 17 180 9.7 27.4 0.00 0.00 0.00 83 1010.2
20260506092203 17 185 8.0 24.1 0.00 0.00 0.00 83 1010.4
20260506091203 17 198 8.0 20.9 0.00 0.00 0.00 84 1010.2
20260506090702 17 180 8.0 20.9 0.00 0.00 0.00 83 1010.5
20260506090203 17 174 8.0 24.1 0.00 0.00 0.00 83 1010.5
20260506085703 17 199 8.0 24.1 0.00 0.00 0.00 83 1010.2
20260506085203 17 188 8.0 20.9 0.00 0.00 0.00 83 1010.5
20260506084703 17 205 9.7 24.1 0.00 0.00 0.00 83 1010.2
20260506084203 17 186 9.7 27.4 0.00 0.00 0.00 83 1010.8
20260506082702 17 210 9.7 24.1 0.00 0.00 0.00 83 1010.5
20260506082203 17 203 8.0 16.1 0.00 0.00 0.00 83 1010.5
20260506080703 18 179 4.8 20.9 0.00 0.00 0.00 83 1010.8
20260506072702 18 187 12.9 27.4 0.00 0.00 0.00 81 1010.5
20260506072202 18 198 6.4 24.1 0.00 0.00 0.00 81 1010.5
20260506071702 18 219 11.3 24.1 0.00 0.00 0.00 81 1010.5
20260506071202 18 216 11.3 27.4 0.00 0.00 0.00 80 1010.8
20260506070703 18 204 9.7 27.4 0.00 0.00 0.00 80 1010.8
20260506062202 19 191 11.3 32.2 0.00 0.00 0.00 78 1010.5
20260506060703 19 203 4.8 20.9 0.00 0.00 0.00 78 1010.8
20260506060203 19 201 8.0 24.1 0.00 0.00 0.00 77 1010.8
20260506051202 19 187 8.0 20.9 0.00 0.00 0.00 75 1011.2
20260506050703 19 175 6.4 16.1 0.00 0.00 0.00 75 1011.5
20260506050202 19 178 8.0 16.1 0.00 0.00 0.00 75 1011.2
20260506044703 20 209 4.8 20.9 0.00 0.00 0.00 74 1011.2
20260506044203 20 212 9.7 20.9 0.00 0.00 0.00 73 1011.5
20260506043702 20 142 8.0 24.1 0.00 0.00 0.00 73 1011.2
20260506043203 20 214 8.0 20.9 0.00 0.00 0.00 73 1011.5
20260506042703 20 211 4.8 16.1 0.00 0.00 0.00 72 1011.5
20260506042203 20 201 8.0 24.1 0.00 0.00 0.00 71 1011.3
20260506041702 20 205 11.3 24.1 0.00 0.00 0.00 71 1011.5
20260506041203 20 181 6.4 16.1 0.00 0.00 0.00 71 1011.5
20260506040703 20 187 4.8 20.9 0.00 0.00 0.00 71 1011.2
20260506040203 20 203 9.7 24.1 0.00 0.00 0.00 71 1011.2
20260506035703 20 196 8.0 20.9 0.00 0.00 0.00 71 1011.5
20260506035203 20 196 11.3 16.1 0.00 0.00 0.00 71 1011.2
20260506034703 20 207 11.3 16.1 0.00 0.00 0.00 70 1011.2
20260506034203 20 207 11.3 16.1 0.00 0.00 0.00 70 1011.2
20260506033703 20 140 3.2 16.1 0.00 0.00 0.00 70 1011.5
20260506033203 20 196 9.7 20.9 0.00 0.00 0.00 70 1011.4
20260506032703 20 204 6.4 20.9 0.00 0.00 0.00 70 1011.4
20260506032203 20 193 6.4 16.1 0.00 0.00 0.00 70 1011.5
20260506031703 20 225 4.8 16.1 0.00 0.00 0.00 69 1011.4
20260506031203 20 224 8.0 16.1 0.00 0.00 0.00 69 1011.4
20260506030703 20 173 0.0 20.9 0.00 0.00 0.00 70 1011.5
20260506030203 20 177 4.8 11.3 0.00 0.00 0.00 69 1011.5
20260506025703 20 162 1.6 11.3 0.00 0.00 0.00 69 1011.5
20260506025202 20 189 8.0 11.3 0.00 0.00 0.00 68 1011.5
20260506024703 20 212 4.8 11.3 0.00 0.00 0.00 68 1011.4
20260506024202 20 184 3.2 16.1 0.00 0.00 0.00 68 1011.5
20260506023703 20 173 3.2 16.1 0.00 0.00 0.00 67 1011.2
20260506023203 20 208 4.8 8.0 0.00 0.00 0.00 66 1011.5
20260506022703 20 209 4.8 16.1 0.00 0.00 0.00 66 1011.4
20260506022202 20 193 6.4 16.1 0.00 0.00 0.00 66 1011.5
20260506021204 20 204 6.4 20.9 0.00 0.00 0.00 65 1011.2
20260506020702 20 192 6.4 24.1 0.00 0.00 0.00 64 1011.5
20260506020202 21 200 9.7 24.1 0.00 0.00 0.00 64 1011.2
20260506015703 21 166 9.7 24.1 0.00 0.00 0.00 64 1011.2
20260506015202 21 191 4.8 16.1 0.00 0.00 0.00 64 1011.2
20260506014703 21 202 4.8 20.9 0.00 0.00 0.00 64 1011.2
20260506014203 21 200 9.7 16.1 0.00 0.00 0.00 63 1011.2
20260506013203 21 202 11.3 16.1 0.00 0.00 0.00 63 1011.2
20260506012703 21 188 3.2 24.1 0.00 0.00 0.00 63 1010.8
20260506012204 22 208 8.0 20.9 0.00 0.00 0.00 62 1011.2
20260506011203 22 209 8.0 20.9 0.00 0.00 0.00 61 1010.8
20260506010203 22 202 8.0 20.9 0.00 0.00 0.00 60 1010.8
20260506005702 22 196 4.8 16.1 0.00 0.00 0.00 59 1010.8
20260506005203 22 232 11.3 20.9 0.00 0.00 0.00 58 1010.8
20260506004702 22 199 8.0 27.4 0.00 0.00 0.00 58 1010.6
20260506004203 23 173 8.0 27.4 0.00 0.00 0.00 57 1010.5
20260506003702 23 213 11.3 24.1 0.00 0.00 0.00 56 1010.5
20260506003202 23 198 9.7 16.1 0.00 0.00 0.00 55 1010.5
20260506002703 23 198 12.9 16.1 0.00 0.00 0.00 53 1010.2
20260506002202 23 198 12.9 16.1 0.00 0.00 0.00 53 1010.2
20260506001702 23 193 11.3 20.9 0.00 0.00 0.00 53 1010.3
20260506001203 24 150 11.3 20.9 0.00 0.00 0.00 51 1010.5
20260506000703 24 187 14.5 32.2 0.00 0.00 0.00 51 1010.2
20260506000204 25 219 4.8 27.4 0.00 0.00 0.00 49 1010.2
20260505235202 25 203 11.3 27.4 0.00 0.00 0.00 47 1010.4
20260505234702 25 180 11.3 24.1 0.00 0.00 0.00 46 1010.2
20260505234203 25 199 8.0 20.9 0.00 0.00 0.00 45 1010.2
20260505233203 25 201 11.3 32.2 0.00 0.00 0.00 46 1009.8
20260505232703 25 217 6.4 16.1 0.00 0.00 0.00 46 1009.8
20260505232203 26 195 9.7 24.1 0.00 0.00 0.00 46 1009.8
20260505231703 26 199 9.7 27.4 0.00 0.00 0.00 45 1009.8
20260505231203 26 200 12.9 40.2 0.00 0.00 0.00 43 1009.6
20260505230703 26 177 16.1 40.2 0.00 0.00 0.00 43 1009.8
20260505230203 26 209 14.5 40.2 0.00 0.00 0.00 43 1009.5
20260505225203 27 165 11.3 27.4 0.00 0.00 0.00 41 1009.5
20260505223703 27 210 12.9 32.2 0.00 0.00 0.00 40 1009.1
20260505223202 27 215 14.5 32.2 0.00 0.00 0.00 40 1009.1
20260505222703 27 199 11.3 32.2 0.00 0.00 0.00 39 1009.1
20260505222202 27 194 17.7 35.4 0.00 0.00 0.00 38 1009.1
20260505221702 27 190 16.1 40.2 0.00 0.00 0.00 39 1009.1
20260505221203 28 199 20.9 40.2 0.00 0.00 0.00 38 1008.8
20260505220703 28 216 14.5 32.2 0.00 0.00 0.00 37 1008.5
20260505220203 28 198 11.3 27.4 0.00 0.00 0.00 35 1008.8
20260505215203 28 198 16.1 40.2 0.00 0.00 0.00 33 1009.1
20260505213702 28 169 12.9 27.4 0.00 0.00 0.00 33 1009.1
20260505213202 28 209 8.0 20.9 0.00 0.00 0.00 33 1009.1
20260505212703 28 166 8.0 24.1 0.00 0.00 0.00 33 1009.1
20260505212202 28 213 8.0 27.4 0.00 0.00 0.00 32 1008.8
20260505211202 28 202 19.3 45.1 0.00 0.00 0.00 34 1008.8
20260505205703 28 218 12.9 35.4 0.00 0.00 0.00 37 1008.5
20260505205203 28 149 20.9 35.4 0.00 0.00 0.00 37 1008.5
20260505204704 28 210 14.5 27.4 0.00 0.00 0.00 37 1008.2
20260505204203 28 235 9.7 35.4 0.00 0.00 0.00 38 1008.5